{"data":{"norad_id":37843,"epoch":"2026-05-25T01:29:10.091904Z","epoch_age_seconds":69626,"freshness":"FRESH","line1":"1 37843U 11059A   26145.06192236 -.00000026  00000+0  00000+0 0  9995","line2":"2 37843   0.0173 297.2221 0002359 125.0687  87.5555  1.00272393 47093","mean_motion":1.00272393,"eccentricity":0.0002359,"inclination_deg":0.0173,"raan_deg":297.2221,"arg_perigee_deg":125.0687,"mean_anomaly_deg":87.5555,"bstar":0,"rev_number":4709,"period_min":1436.0881962795,"perigee_km":35776.477897519,"apogee_km":35796.371137643,"semimajor_km":42164.561517581,"source":"CELESTRAK","updated_at":"2026-05-25T13:38:13.906033Z"}}